DateTimeUTC,F1_A11,F1_S11,BsB_S11,BsG_S11,BsR_S11,BbsB_S11,BbsG_S11,BbsR_S11,BaB_A11,BaG_A11,BaR_A11,Tu_S11,T_S11,Uu_S11,U_S11,P_S11,T1_A11
2021-05-03T02:00:00Z,00000200,21000000,,,,,,,0000.21,-000.59,0000.15,17.6,24.8,,00.0,0682.1,31.1
2021-05-03T02:01:00Z,00000200,21000000,,,,,,,-000.13,0000.31,0000.08,17.6,24.9,,00.0,0682.1,31.1
2021-05-03T02:02:00Z,00000200,21000000,,,,,,,0000.05,-000.21,0000.02,17.6,24.9,,00.0,0682.1,31.1
2021-05-03T02:03:00Z,00000200,61000000,,,,,,,0001.29,0001.07,0000.70,17.6,24.9,,00.0,0682.1,31.1
2021-05-03T02:04:00Z,00000200,41000000,0005.44,0003.77,0002.08,0000.91,0000.63,0000.23,0002.11,0002.18,0001.39,17.7,24.7,,00.0,0683.0,31.0
2021-05-03T02:05:00Z,00000200,01000000,0006.17,0003.84,0002.07,0000.48,0000.69,0000.61,0002.19,0001.54,0001.25,17.7,24.6,,00.0,0683.1,31.1
2021-05-03T02:06:00Z,00000200,01000000,0006.48,0003.74,0002.30,0000.78,0000.75,0000.48,0002.03,0002.32,0001.46,17.7,24.6,,00.0,0683.0,31.0
2021-05-03T02:07:00Z,00000200,01000000,0006.29,0003.81,0002.45,0000.70,0000.79,0000.29,0002.39,0001.84,0001.63,17.7,24.6,,00.0,0683.0,31.0
2021-05-03T02:08:00Z,00000200,01000000,0005.96,0004.02,0002.63,0000.59,0000.56,0000.31,0001.99,0001.98,0001.32,17.7,24.5,,00.0,0683.0,31.0
2021-05-03T02:09:00Z,00000200,01000000,0006.29,0003.93,0002.39,0000.45,0000.78,0000.25,0002.73,0002.19,0001.54,17.6,24.5,,00.0,0683.0,31.0
2021-05-03T02:10:00Z,00000200,01000000,0005.26,0004.09,0002.29,0000.82,0000.57,0000.41,0002.16,0001.64,0001.15,17.6,24.5,,00.0,0683.0,31.0
2021-05-03T02:11:00Z,00000200,01000000,0006.30,0003.86,0002.34,-000.04,0000.74,0000.45,0001.61,0002.02,0000.97,17.6,24.5,,00.0,0683.0,31.0
2021-05-03T02:12:00Z,00000200,01000000,0005.25,0003.79,0002.22,0000.70,0000.42,0000.17,0001.80,0001.92,0001.43,17.6,24.5,,00.0,0683.0,31.0
2021-05-03T02:13:00Z,00000200,01000000,0005.80,0003.90,0002.16,0000.24,0000.63,0000.63,0002.38,0001.48,0001.68,17.7,24.5,,00.0,0683.0,31.0
2021-05-03T02:14:00Z,00000200,01000000,0006.19,0003.93,0002.54,0000.79,0000.66,0000.39,0002.36,0002.35,0001.24,17.7,24.5,,00.0,0683.0,31.0
2021-05-03T02:15:00Z,00000200,01000000,0005.08,0004.04,0002.00,0000.94,0000.61,0000.55,0002.15,0001.83,0001.43,17.7,24.5,,00.0,0683.0,31.0
2021-05-03T02:16:00Z,00000200,01000000,0006.12,0004.10,0002.43,-000.22,0000.59,0000.40,0002.43,0002.07,0001.70,17.7,24.5,,00.0,0683.0,31.1
2021-05-03T02:17:00Z,00000200,01000000,0005.91,0003.84,0002.33,0000.58,0000.60,0000.29,0002.22,0001.84,0000.98,17.7,24.5,,00.0,0683.0,31.0
2021-05-03T02:18:00Z,00000200,01000000,0005.53,0004.47,0002.40,0000.89,0000.44,0000.19,0002.25,0002.26,0001.58,17.7,24.5,,00.0,0683.0,31.0
2021-05-03T02:19:00Z,00000200,01000000,0006.24,0004.10,0002.36,0000.51,0000.52,0000.26,0002.18,0002.21,0001.40,17.7,24.5,,00.0,0682.9,31.0
2021-05-03T02:20:00Z,00000200,01000000,0006.03,0003.91,0002.25,0000.19,0000.68,0000.18,0002.22,0001.90,0001.47,17.7,24.4,,00.0,0683.0,31.0
2021-05-03T02:21:00Z,00000200,01000000,0005.57,0004.42,0002.34,0000.80,0000.79,0000.46,0002.29,0002.04,0001.31,17.6,24.4,,00.0,0682.9,31.1
2021-05-03T02:22:00Z,00000200,01000000,0005.46,0004.07,0002.31,0001.20,0000.69,0000.20,0002.18,0001.47,0001.69,17.6,24.4,,00.0,0683.0,31.0
2021-05-03T02:23:00Z,00000200,01000000,0005.99,0004.05,0002.47,0000.66,0000.77,0000.37,0002.23,0002.21,0001.32,17.6,24.4,,00.0,0683.0,31.0
2021-05-03T02:24:00Z,00000200,01000000,0006.53,0004.20,0002.32,0000.97,0000.70,0000.50,0002.18,0001.84,0001.32,17.6,24.4,,00.0,0683.0,31.0
2021-05-03T02:25:00Z,00000200,01000000,0006.09,0004.25,0002.06,0000.56,0000.65,0000.29,0002.42,0002.09,0001.74,17.6,24.4,,00.0,0683.0,31.0
2021-05-03T02:26:00Z,00000200,01000000,0005.79,0003.91,0002.18,0000.76,0000.71,0000.45,0002.24,0001.89,0001.14,17.6,24.4,,00.0,0683.0,31.0
2021-05-03T02:27:00Z,00000200,01000000,0006.06,0004.04,0001.95,0001.03,0000.31,0000.29,0002.00,0001.90,0001.24,17.5,24.4,,00.0,0683.0,31.0
2021-05-03T02:28:00Z,00000200,01000000,0005.85,0004.00,0002.25,0001.17,0000.40,0000.43,0002.12,0001.39,0001.62,17.6,24.4,,00.0,0683.0,31.0
2021-05-03T02:29:00Z,00000200,01000000,0005.79,0003.83,0002.40,0000.71,0000.79,0000.52,0002.03,0002.35,0001.12,17.6,24.4,,00.0,0683.0,31.1
2021-05-03T02:30:00Z,00000200,01000000,0006.30,0004.15,0002.12,0000.77,0000.64,0000.29,0001.81,0001.75,0001.40,17.7,24.4,,00.0,0682.9,31.1
2021-05-03T02:31:00Z,00000200,01000000,0005.84,0004.21,0002.32,0000.14,0000.55,0000.22,0002.34,0002.04,0001.22,17.7,24.4,,00.0,0682.9,31.1
2021-05-03T02:32:00Z,00000200,01000000,0006.09,0003.84,0002.00,0000.42,0000.55,0000.43,0002.38,0001.80,0001.20,17.7,24.4,,00.0,0682.9,31.1
2021-05-03T02:33:00Z,00000200,01000000,0006.26,0003.78,0002.36,0000.43,0000.44,0000.35,0001.95,0002.06,0001.58,17.7,24.4,,00.0,0682.9,31.1
2021-05-03T02:34:00Z,00000200,01000000,0005.60,0004.06,0002.08,0000.31,0000.93,0000.17,0002.16,0002.06,0001.35,17.6,24.4,,00.0,0682.9,31.0
2021-05-03T02:35:00Z,00000200,01000000,0005.53,0003.79,0002.42,0001.00,0000.44,0000.54,0002.32,0001.96,0001.74,17.6,24.4,,00.0,0682.9,31.0
2021-05-03T02:36:00Z,00000200,01000000,0005.66,0004.07,0002.56,0000.67,0000.47,0000.33,0002.10,0002.00,0001.37,17.6,24.4,,00.0,0682.9,31.0
2021-05-03T02:37:00Z,00000200,01000000,0005.84,0003.90,0002.36,0000.43,0000.48,0000.43,0002.07,0001.67,0001.15,17.6,24.4,,00.0,0682.9,31.0
2021-05-03T02:38:00Z,00000200,01000000,0006.36,0003.85,0002.46,0000.67,0000.83,0000.47,0002.42,0002.05,0001.51,17.6,24.3,,00.0,0682.9,31.0
2021-05-03T02:39:00Z,00000200,01000000,0005.67,0003.87,0002.55,0000.63,0000.32,0000.68,0002.01,0001.61,0001.52,17.6,24.3,,00.0,0682.9,31.0
2021-05-03T02:40:00Z,00000200,01000000,0006.99,0003.89,0002.45,0000.92,0000.75,0000.31,0002.30,0002.06,0001.20,17.5,24.3,,00.0,0682.9,31.0
2021-05-03T02:41:00Z,00000200,01000000,0005.46,0004.36,0002.23,0000.15,0000.78,0000.45,0002.43,0002.06,0001.35,17.5,24.3,,00.0,0682.9,31.0
2021-05-03T02:42:00Z,00000200,01000000,0005.89,0003.95,0002.38,0000.67,0000.68,0000.67,0002.00,0002.11,0001.50,17.5,24.3,,00.0,0682.9,31.0
2021-05-03T02:43:00Z,00000200,01000000,0006.33,0004.11,0002.23,0000.57,0000.47,0000.50,0002.23,0001.69,0001.25,17.6,24.3,,00.0,0682.9,31.0
2021-05-03T02:44:00Z,00000200,01000000,0006.01,0004.06,0001.96,0001.12,0000.76,0000.12,0002.09,0002.25,0001.78,17.6,24.3,,00.0,0682.9,31.1
2021-05-03T02:45:00Z,00000200,01000000,0005.51,0003.62,0001.91,0000.02,0000.56,0000.56,0002.27,0001.95,0001.32,17.7,24.4,,00.0,0682.9,31.1
2021-05-03T02:46:00Z,00000200,01000000,0004.85,0003.13,0001.78,0000.56,0000.56,-000.06,0001.90,0001.55,0001.17,17.7,24.4,,00.0,0682.9,31.1
2021-05-03T02:47:00Z,00000200,01000000,0004.33,0003.08,0001.65,0000.05,0000.53,0000.12,0001.73,0001.35,0001.05,17.7,24.4,,00.0,0682.9,31.1
2021-05-03T02:48:00Z,00000200,01000000,0002.78,0001.74,0001.16,0000.44,0000.12,0000.05,0000.93,0001.48,0000.82,17.7,24.4,,00.0,0682.8,31.1
2021-05-03T02:49:00Z,00000200,01000000,0002.45,0002.00,0000.87,0000.36,0000.26,0000.27,0001.41,0000.67,0000.70,17.6,24.3,,00.0,0682.8,31.1
2021-05-03T02:50:00Z,00000200,01000000,0002.12,0001.90,0001.08,0000.98,0000.34,0000.34,0001.14,0001.15,0000.60,17.7,24.4,,00.0,0682.8,31.0
2021-05-03T02:51:00Z,00000200,01000000,0001.92,0001.38,0000.75,0000.26,0000.29,0000.06,0000.82,0000.81,0000.32,17.6,24.4,,00.0,0682.8,31.1
2021-05-03T02:52:00Z,00000200,01000000,0001.82,0001.39,0000.92,0000.42,0000.17,0000.25,0000.61,0000.37,0000.54,17.6,24.3,,00.0,0682.8,31.0
2021-05-03T02:53:00Z,00000200,01000000,0001.54,0001.44,0000.73,0000.15,0000.13,0000.14,0000.91,0000.95,0000.75,17.6,24.3,,00.0,0682.8,31.0
2021-05-03T02:54:00Z,00000200,01000000,0002.05,0001.35,0000.80,-000.30,0000.50,0000.08,0000.67,0000.31,0000.32,17.6,24.3,,00.0,0682.8,31.1
2021-05-03T02:55:00Z,00000200,01000000,0001.54,0001.02,0000.86,0000.03,0000.46,0000.04,0000.60,0000.59,0000.40,17.6,24.3,,00.0,0682.8,31.0
2021-05-03T02:56:00Z,00000200,01000000,0002.37,0001.06,0000.95,-000.13,0000.24,0000.39,0000.46,0000.30,0000.44,17.6,24.3,,00.0,0682.8,31.0
2021-05-03T02:57:00Z,00000200,41000000,,,,,,,0000.45,0000.68,0000.25,17.7,24.3,,00.0,0682.7,31.0
2021-05-03T02:58:00Z,00000200,61000000,,,,,,,-000.10,0000.07,-000.01,17.4,24.4,,00.0,0681.7,31.1
2021-05-03T02:59:00Z,00000200,21000000,,,,,,,-000.32,-000.29,-000.36,17.4,24.5,,00.0,0681.8,31.1
